Rochester/St. Mary\'s Hospita, MN

5:47 AM CDT on September 24, 2018 (GMT -0500)
Rochester/St. Mary\'s Hospita

Weather History for K9MN - October, 2017

Change the Weather History Date:

Sunday, October 29, 2017

  Actual Average (KRST) Record (KRST)
Temperature  
Mean Temperature 34 °F -  
Max Temperature 41 °F 52 °F 80 °F (1950)
Min Temperature 27 °F 33 °F 12 °F (1920)
Degree Days  
Heating Degree Days 31    
Moisture  
Dew Point 29 °F    
Average Humidity 82    
Maximum Humidity 99    
Minimum Humidity 56    
Precipitation  
Precipitation 0.00 in - - ()
Sea Level Pressure  
Sea Level Pressure 29.73 in    
Wind  
Wind Speed 9 mph (SSE)    
Max Wind Speed 20 mph    
Max Gust Speed 26 mph    
Visibility 10 miles    
Events      
Averages and records for this station are not official NWS values.
T = Trace of Precipitation, MM = Missing Value Source: NWS Daily Summary

Daily Weather History Graph

Daily Weather History Graph

Search for Another Location

Airport or City:

Astronomy

Oct. 29, 2017 Rise Set
Actual Time 7:42 AM CDT 6:03 PM CDT
Civil Twilight 7:12 AM CDT 6:33 PM CDT
Nautical Twilight 6:38 AM CDT 7:07 PM CDT
Astronomical Twilight 6:05 AM CDT 7:40 PM CDT
Moon 3:30 PM CDT (10/29) 1:13 AM CDT (10/29)
Length of Visible Light 11h 20m
Length of Day
10h 20m
Waxing Gibbous, 67% of the Moon is Illuminated
Oct 29
Waxing Gibbous
Nov 4
Full
Nov 10
Last Quarter
Nov 18
New
Nov 26
First Quarter

Hourly Weather History & Observations

Time (CDT) Temp. Windchill Dew Point Humidity Pressure Visibility Wind Dir Wind Speed Gust Speed Precip Events Conditions
12:12 AM 27.7 °F 19.6 °F 23.5 °F 84% 29.89 in 10.0 mi SE 8.1 mph - N/A   Clear
12:32 AM 27.5 °F 22.2 °F 23.7 °F 86% 29.89 in 10.0 mi SSE 4.6 mph - N/A   Clear
12:51 AM 27.5 °F 20.2 °F 23.7 °F 86% 29.88 in 10.0 mi SSE 6.9 mph - N/A   Clear
1:12 AM 27.5 °F 19.3 °F 23.7 °F 86% 29.88 in 10.0 mi SE 8.1 mph - N/A   Clear
1:32 AM 27.3 °F 17.7 °F 23.5 °F 86% 29.87 in 10.0 mi SE 10.4 mph - N/A   Clear
1:51 AM 27.1 °F 16.9 °F 23.5 °F 86% 29.87 in 10.0 mi SSE 11.5 mph - N/A   Clear
2:12 AM 27.1 °F 19.7 °F 23.4 °F 86% 29.86 in 10.0 mi SE 6.9 mph - N/A   Scattered Clouds
2:32 AM 27.1 °F 18.2 °F 23.4 °F 86% 29.85 in 10.0 mi SE 9.2 mph - N/A   Scattered Clouds
2:51 AM 27.1 °F 18.2 °F 23.4 °F 86% 29.85 in 10.0 mi SE 9.2 mph - N/A   Scattered Clouds
3:12 AM 27.1 °F 17.5 °F 23.4 °F 86% 29.84 in 10.0 mi SE 10.4 mph - N/A   Clear
3:32 AM 27.1 °F 17.5 °F 23.7 °F 87% 29.82 in 10.0 mi SE 10.4 mph - N/A   Clear
3:51 AM 27.3 °F 17.1 °F 23.9 °F 87% 29.82 in 10.0 mi SE 11.5 mph - N/A   Clear
4:12 AM 27.3 °F 17.1 °F 23.9 °F 87% 29.81 in 10.0 mi SE 11.5 mph 17.3 mph N/A   Clear
4:32 AM 27.5 °F 17.4 °F 24.3 °F 88% 29.80 in 10.0 mi SE 11.5 mph 19.6 mph N/A   Clear
4:52 AM 27.5 °F 16.8 °F 24.3 °F 88% 29.80 in 10.0 mi SSE 12.7 mph - N/A   Clear
5:12 AM 27.7 °F 18.2 °F 24.3 °F 87% 29.79 in 10.0 mi SE 10.4 mph 16.1 mph N/A   Clear
5:31 AM 27.9 °F 18.4 °F 24.4 °F 87% 29.78 in 10.0 mi SE 10.4 mph 20.7 mph N/A   Scattered Clouds
5:52 AM 28.2 °F 18.3 °F 24.6 °F 86% 29.78 in 10.0 mi SE 11.5 mph 17.3 mph N/A   Overcast
6:12 AM 28.4 °F 18.0 °F 24.8 °F 86% 29.78 in 10.0 mi SE 12.7 mph - N/A   Overcast
6:31 AM 28.9 °F 19.8 °F 24.8 °F 84% 29.77 in 10.0 mi SE 10.4 mph - N/A   Overcast
6:51 AM 29.3 °F 20.8 °F 25.2 °F 85% 29.77 in 10.0 mi SSE 9.2 mph - N/A   Overcast
7:12 AM 29.7 °F 20.1 °F 25.3 °F 84% 29.76 in 10.0 mi SE 11.5 mph 19.6 mph N/A   Overcast
7:31 AM 29.8 °F 19.8 °F 25.3 °F 83% 29.75 in 10.0 mi SSE 12.7 mph 19.6 mph N/A   Overcast
7:51 AM 30.0 °F 21.1 °F 25.5 °F 83% 29.75 in 10.0 mi SE 10.4 mph 17.3 mph N/A   Overcast
8:12 AM 30.2 °F 20.8 °F 25.5 °F 83% 29.74 in 10.0 mi SE 11.5 mph - N/A   Overcast
8:31 AM 30.6 °F 21.2 °F 25.5 °F 82% 29.73 in 10.0 mi SE 11.5 mph 19.6 mph N/A   Overcast
8:52 AM 30.9 °F 24.3 °F 25.7 °F 81% 29.73 in 10.0 mi SSE 6.9 mph - N/A   Overcast
9:12 AM 31.5 °F 22.9 °F 25.7 °F 79% 29.73 in 10.0 mi SE 10.4 mph 17.3 mph N/A   Overcast
9:31 AM 32.0 °F 24.8 °F 25.3 °F 76% 29.73 in 10.0 mi SSE 8.1 mph 17.3 mph N/A   Overcast
9:52 AM 32.7 °F 26.4 °F 25.7 °F 75% 29.73 in 10.0 mi South 6.9 mph 18.4 mph N/A   Overcast
10:12 AM 32.9 °F 24.7 °F 25.2 °F 73% 29.72 in 10.0 mi SSE 10.4 mph 17.3 mph N/A   Overcast
10:31 AM 33.6 °F 25.6 °F 24.8 °F 70% 29.71 in 10.0 mi SSE 10.4 mph 19.6 mph N/A   Overcast
10:52 AM 34.0 °F 26.0 °F 24.8 °F 69% 29.70 in 10.0 mi SSE 10.4 mph 19.6 mph N/A   Overcast
11:12 AM 34.3 °F 27.0 °F 24.6 °F 68% 29.69 in 10.0 mi SE 9.2 mph 17.3 mph N/A   Overcast
11:31 AM 35.1 °F 27.4 °F 24.8 °F 66% 29.69 in 10.0 mi SSE 10.4 mph 18.4 mph N/A   Overcast
11:52 AM 35.6 °F 27.1 °F 25.3 °F 66% 29.68 in 10.0 mi SE 12.7 mph 18.4 mph N/A   Overcast
12:12 PM 36.5 °F 28.2 °F 25.0 °F 63% 29.68 in 10.0 mi SSE 12.7 mph 20.7 mph N/A   Overcast
12:31 PM 37.0 °F 31.0 °F 25.3 °F 63% 29.68 in 10.0 mi SSE 8.1 mph - N/A   Overcast
12:52 PM 37.4 °F 30.8 °F 25.2 °F 61% 29.66 in 10.0 mi SE 9.2 mph 16.1 mph N/A   Overcast
1:12 PM 38.1 °F 31.2 °F 25.2 °F 60% 29.66 in 10.0 mi SSE 10.4 mph 18.4 mph N/A   Overcast
1:31 PM 38.8 °F 35.4 °F 25.7 °F 59% 29.66 in 10.0 mi SSE 4.6 mph - N/A   Overcast
1:52 PM 39.7 °F 33.2 °F 25.5 °F 57% 29.66 in 10.0 mi South 10.4 mph - N/A   Overcast
2:12 PM 40.3 °F 32.6 °F 25.9 °F 56% 29.65 in 10.0 mi SSE 13.8 mph 18.4 mph N/A   Overcast
2:31 PM 41.0 °F 34.3 °F 26.4 °F 56% 29.65 in 10.0 mi SSE 11.5 mph 16.1 mph N/A   Overcast
2:52 PM 41.2 °F 36.6 °F 26.6 °F 56% 29.66 in 10.0 mi South 6.9 mph - N/A   Overcast
3:12 PM 40.8 °F 35.0 °F 28.8 °F 62% 29.66 in 10.0 mi South 9.2 mph - N/A   Overcast
3:31 PM 40.3 °F 35.5 °F 30.9 °F 69% 29.66 in 10.0 mi SSW 6.9 mph - N/A   Overcast
3:52 PM 39.9 °F 35.1 °F 32.4 °F 74% 29.67 in 10.0 mi SSW 6.9 mph - N/A   Overcast
4:12 PM 39.6 °F 37.4 °F 33.1 °F 78% 29.68 in 10.0 mi SW 3.5 mph - N/A   Overcast
4:31 PM 39.4 °F 35.2 °F 33.6 °F 80% 29.68 in 10.0 mi South 5.8 mph - N/A   Overcast
4:52 PM 38.5 °F 34.1 °F 34.7 °F 86% 29.67 in 10.0 mi SSE 5.8 mph - N/A   Overcast
5:12 PM 39.4 °F 35.2 °F 35.6 °F 86% 29.68 in 10.0 mi SSW 5.8 mph - N/A   Overcast
5:31 PM 38.8 °F 33.2 °F 36.0 °F 89% 29.68 in 10.0 mi SSW 8.1 mph - N/A   Overcast
5:52 PM 39.6 °F - 36.7 °F 89% 29.69 in 10.0 mi Calm Calm - N/A   Overcast
6:11 PM 39.9 °F 36.7 °F 37.0 °F 89% 29.69 in 10.0 mi SSW 4.6 mph - N/A   Overcast
6:32 PM 39.2 °F - 36.9 °F 91% 29.69 in 10.0 mi Calm Calm - N/A   Overcast
6:52 PM 38.7 °F - 37.4 °F 95% 29.69 in 10.0 mi Calm Calm - N/A   Overcast
7:11 PM 38.8 °F 36.5 °F 37.8 °F 96% 29.70 in 10.0 mi WSW 3.5 mph - N/A   Overcast
7:32 PM 39.9 °F - 38.5 °F 95% 29.70 in 10.0 mi Calm Calm - N/A   Overcast
7:52 PM 39.9 °F 37.8 °F 38.5 °F 95% 29.70 in 10.0 mi WSW 3.5 mph - N/A   Overcast
8:11 PM 39.7 °F - 38.7 °F 96% 29.70 in 10.0 mi Calm Calm - N/A   Overcast
8:32 PM 40.3 °F 38.2 °F 39.0 °F 95% 29.70 in 10.0 mi SW 3.5 mph - N/A   Overcast
8:52 PM 40.3 °F 37.1 °F 39.0 °F 95% 29.70 in 10.0 mi West 4.6 mph - N/A   Overcast
9:11 PM 40.3 °F 38.2 °F 39.6 °F 97% 29.69 in 10.0 mi WSW 3.5 mph - N/A   Overcast
9:32 PM 41.0 °F 39.0 °F 39.7 °F 95% 29.69 in 10.0 mi SW 3.5 mph - N/A   Overcast
9:52 PM 40.5 °F 36.5 °F 39.7 °F 97% 29.70 in 10.0 mi West 5.8 mph - N/A   Overcast
10:11 PM 40.8 °F 37.8 °F 40.3 °F 98% 29.69 in 10.0 mi WSW 4.6 mph - N/A   Overcast
10:32 PM 40.6 °F 36.0 °F 40.1 °F 98% 29.70 in 10.0 mi West 6.9 mph - N/A   Overcast
10:52 PM 41.0 °F 35.8 °F 40.3 °F 97% 29.70 in 10.0 mi West 8.1 mph - N/A   Overcast
11:11 PM 41.4 °F 35.2 °F 41.0 °F 99% 29.69 in 10.0 mi West 10.4 mph 16.1 mph N/A   Overcast
11:32 PM 41.7 °F 34.8 °F 40.6 °F 96% 29.69 in 10.0 mi West 12.7 mph - N/A   Overcast
11:52 PM 41.5 °F 32.6 °F 39.6 °F 93% 29.68 in 10.0 mi West 19.6 mph 26.5 mph N/A   Overcast